Monticello, IA

5:23 AM CST on February 18, 2018 (GMT -0600)
Monticello Regional

Weather History for KMXO - August, 2014

Change the Weather History Date:

Friday, August 15, 2014

  Actual Average Record
Temperature  
Mean Temperature 63 °F -  
Max Temperature 71 °F 78 °F 89 °F (2003)
Min Temperature 55 °F 57 °F 44 °F (2004)
Degree Days  
Heating Degree Days 2    
Growing Degree Days 13 (Base 50)    
Moisture  
Dew Point 58 °F    
Average Humidity 85    
Maximum Humidity 100    
Minimum Humidity 73    
Precipitation  
Precipitation 0.00 in - - ()
Sea Level Pressure  
Sea Level Pressure 30.05 in    
Wind  
Wind Speed 2 mph (SSE)    
Max Wind Speed 9 mph    
Max Gust Speed 15 mph    
Visibility 10 miles    
Events      
Averages and records for this station are not official NWS values.
T = Trace of Precipitation, MM = Missing Value Source: NWS Daily Summary

Daily Weather History Graph

Daily Weather History Graph

Search for Another Location

Airport or City:

Trip Planner

Search our weather history database for the weather conditions in past years. The results will help you decide how hot, cold, wet, or windy it might be!

Date:

Astronomy

Aug. 15, 2014 Rise Set
Actual Time 6:12 AM CDT 8:05 PM CDT
Civil Twilight 5:41 AM CDT 8:35 PM CDT
Nautical Twilight 5:05 AM CDT 9:12 PM CDT
Astronomical Twilight 4:25 AM CDT 9:51 PM CDT
Moon 11:00 PM CDT (8/15) 12:02 PM CDT (8/15)
Length of Visible Light 14h 53m
Length of Day
13h 53m
Waning Gibbous, 69% of the Moon is Illuminated
Aug 15
Waning Gibbous
Aug 17
Last Quarter
Aug 25
New
Sep 2
First Quarter
Sep 8
Full

Hourly Weather History & Observations

Time (CDT) Temp. Dew Point Humidity Pressure Visibility Wind Dir Wind Speed Gust Speed Precip Events Conditions
12:15 AM 55.4 °F 53.6 °F 94% 30.05 in 10.0 mi Calm Calm - N/A   Clear
12:35 AM 55.4 °F 53.6 °F 94% 30.05 in 10.0 mi Calm Calm - N/A   Clear
12:55 AM 55.4 °F 53.6 °F 94% 30.05 in 10.0 mi Calm Calm - N/A   Clear
1:15 AM 55.4 °F 55.4 °F 100% 30.05 in 10.0 mi Calm Calm - N/A   Clear
1:35 AM 57.2 °F 55.4 °F 94% 30.05 in 10.0 mi Calm Calm - N/A   Clear
1:55 AM 57.2 °F 55.4 °F 94% 30.05 in 10.0 mi Calm Calm - N/A   Clear
2:15 AM 57.2 °F 57.2 °F 100% 30.04 in 10.0 mi Calm Calm - N/A   Clear
2:35 AM 57.2 °F 57.2 °F 100% 30.04 in 10.0 mi Calm Calm - N/A   Clear
2:55 AM 57.2 °F 55.4 °F 94% 30.03 in 10.0 mi Calm Calm - N/A   Clear
3:15 AM 57.2 °F 55.4 °F 94% 30.03 in 10.0 mi Calm Calm - N/A   Clear
3:35 AM 55.4 °F 53.6 °F 94% 30.03 in 10.0 mi Calm Calm - N/A   Clear
3:55 AM 57.2 °F 55.4 °F 94% 30.03 in 10.0 mi Calm Calm - N/A   Clear
4:15 AM 57.2 °F 55.4 °F 94% 30.03 in 10.0 mi Calm Calm - N/A   Clear
4:35 AM 59.0 °F 55.4 °F 88% 30.04 in 10.0 mi Calm Calm - N/A   Scattered Clouds
4:55 AM 59.0 °F 55.4 °F 88% 30.04 in 10.0 mi Calm Calm - N/A   Scattered Clouds
5:35 AM 59.0 °F 55.4 °F 88% 30.04 in 10.0 mi Calm Calm - N/A   Mostly Cloudy
5:55 AM 59.0 °F 55.4 °F 88% 30.05 in 10.0 mi Calm Calm - N/A   Scattered Clouds
6:15 AM 59.0 °F 55.4 °F 88% 30.06 in 10.0 mi Calm Calm - N/A   Scattered Clouds
6:35 AM 59.0 °F 55.4 °F 88% 30.06 in 10.0 mi Calm Calm - N/A   Mostly Cloudy
6:55 AM 59.0 °F 57.2 °F 94% 30.06 in 10.0 mi Calm Calm - N/A   Overcast
7:15 AM 60.8 °F 57.2 °F 88% 30.06 in 10.0 mi Variable 3.5 mph - N/A   Mostly Cloudy
7:35 AM 60.8 °F 57.2 °F 88% 30.06 in 10.0 mi ESE 4.6 mph - N/A   Mostly Cloudy
7:55 AM 60.8 °F 57.2 °F 88% 30.06 in 10.0 mi Variable 3.5 mph - N/A   Overcast
8:15 AM 62.6 °F 57.2 °F 82% 30.06 in 10.0 mi SE 4.6 mph - N/A   Mostly Cloudy
8:35 AM 62.6 °F 59.0 °F 88% 30.06 in 10.0 mi SE 5.8 mph - N/A   Scattered Clouds
8:55 AM 64.4 °F 59.0 °F 83% 30.05 in 10.0 mi SSE 6.9 mph - N/A   Scattered Clouds
9:15 AM 66.2 °F 59.0 °F 78% 30.04 in 10.0 mi ESE 8.1 mph - N/A   Partly Cloudy
9:35 AM 66.2 °F 59.0 °F 78% 30.04 in 10.0 mi SE 6.9 mph - N/A   Clear
9:55 AM 66.2 °F 59.0 °F 78% 30.05 in 10.0 mi SE 8.1 mph - N/A   Clear
10:15 AM 68.0 °F 60.8 °F 78% 30.05 in 10.0 mi SE 6.9 mph - N/A   Mostly Cloudy
10:35 AM 69.8 °F 60.8 °F 73% 30.06 in 10.0 mi Variable 6.9 mph - N/A   Overcast
10:55 AM 69.8 °F 60.8 °F 73% 30.06 in 10.0 mi SSE 6.9 mph - N/A   Mostly Cloudy
11:15 AM 69.8 °F 60.8 °F 73% 30.06 in 10.0 mi South 4.6 mph - N/A   Overcast
11:35 AM 71.6 °F 62.6 °F 73% 30.06 in 10.0 mi South 9.2 mph - N/A   Scattered Clouds
11:55 AM 71.6 °F 62.6 °F 73% 30.05 in 10.0 mi South 8.1 mph - N/A   Clear
12:15 PM 71.6 °F 62.6 °F 73% 30.05 in 10.0 mi SSE 6.9 mph - N/A   Scattered Clouds
12:35 PM 71.6 °F 62.6 °F 73% 30.04 in 10.0 mi South 6.9 mph - N/A   Mostly Cloudy
12:55 PM 71.6 °F 62.6 °F 73% 30.04 in 10.0 mi SSE 8.1 mph - N/A   Scattered Clouds
1:15 PM 71.6 °F 62.6 °F 73% 30.03 in 10.0 mi South 9.2 mph - N/A   Scattered Clouds
1:35 PM 71.6 °F 62.6 °F 73% 30.02 in 10.0 mi SE 8.1 mph 15.0 mph N/A   Partly Cloudy
1:50 PM 71.6 °F 62.6 °F 73% 30.02 in 10.0 mi SE 8.1 mph - N/A   Clear